GW0157 Weather Reports


time (UTC)temp
F
wind
direction
speed
knots
gust
knots
rain 1hr
in
rain 24hr
in
rain mn
in
humidity
%
barometer
mb
20260504000410 68 6 0.0 1.7 0.00 0.01 0.01 45 1033.9
20260503235907 68 6 0.0 0.9 0.00 0.01 0.01 46 1033.7
20260503235405 68 16 0.0 1.7 0.00 0.01 0.01 47 1033.5
20260503234902 68 204 2.6 5.2 0.00 0.01 0.01 44 1033.6
20260503234359 69 175 3.5 5.2 0.00 0.01 0.01 47 1033.7
20260503233857 69 179 2.6 4.3 0.00 0.01 0.01 44 1033.6
20260503233353 69 20 0.9 6.1 0.00 0.01 0.01 44 1033.7
20260503232849 69 190 4.3 7.8 0.00 0.01 0.01 44 1033.8
20260503232347 69 325 1.7 6.1 0.00 0.01 0.01 43 1033.9
20260503231845 69 321 1.7 6.1 0.00 0.01 0.01 44 1033.7
20260503231342 71 291 2.6 5.2 0.00 0.01 0.01 41 1033.9
20260503230838 71 50 0.9 2.6 0.00 0.01 0.01 41 1033.9
20260503230335 71 301 1.7 4.3 0.00 0.01 0.01 42 1033.9
20260503225833 70 306 2.6 4.3 0.00 0.01 0.01 41 1033.8
20260503225328 70 331 1.7 2.6 0.00 0.01 0.01 43 1034.1
20260503224825 69 201 2.6 6.1 0.00 0.01 0.01 48 1034.0
20260503224322 69 192 5.2 7.0 0.00 0.01 0.01 47 1034.0
20260503223820 69 183 7.8 11.3 0.00 0.01 0.01 46 1034.1
20260503223317 69 340 0.9 7.0 0.00 0.01 0.01 46 1033.7
20260503222812 69 173 6.1 7.0 0.00 0.01 0.01 46 1034.2
20260503222311 69 1 1.7 4.3 0.00 0.01 0.01 45 1034.2
20260503221809 69 166 5.2 8.7 0.00 0.01 0.01 50 1034.0
20260503221307 69 348 1.7 4.3 0.00 0.01 0.01 46 1034.2
20260503220803 69 202 3.5 8.7 0.00 0.01 0.01 48 1034.0
20260503220300 69 172 7.0 12.2 0.00 0.01 0.01 48 1034.1
20260503215757 69 173 5.2 8.7 0.00 0.01 0.01 48 1034.1
20260503215254 69 186 6.1 9.6 0.00 0.01 0.01 50 1034.4
20260503214752 68 202 3.5 5.2 0.00 0.01 0.01 48 1034.2
20260503214248 68 197 6.1 11.3 0.00 0.01 0.01 49 1034.5
20260503213746 68 203 7.0 9.6 0.00 0.01 0.01 48 1034.3
20260503213244 68 324 2.6 7.0 0.00 0.01 0.01 50 1034.3
20260503212740 68 186 2.6 12.2 0.00 0.01 0.01 49 1034.4
20260503212238 69 170 7.0 9.6 0.00 0.01 0.01 51 1034.3
20260503211735 68 293 2.6 5.2 0.00 0.01 0.01 47 1034.4
20260503211231 68 170 6.1 7.8 0.00 0.01 0.01 51 1034.5
20260503210727 68 183 7.0 7.8 0.00 0.01 0.01 49 1034.7
20260503210225 68 218 2.6 11.3 0.00 0.01 0.01 48 1034.7
20260503205720 67 198 8.7 11.3 0.00 0.01 0.01 48 1034.7
20260503205216 68 190 9.6 12.2 0.00 0.01 0.01 50 1034.7
20260503204713 68 187 6.1 7.8 0.00 0.01 0.01 50 1034.8
20260503204211 67 173 7.0 11.3 0.00 0.01 0.01 52 1034.8
20260503203708 67 156 7.8 9.6 0.00 0.01 0.01 51 1035.0
20260503203205 67 175 7.8 8.7 0.00 0.01 0.01 50 1035.2
20260503202702 67 193 7.8 13.0 0.00 0.01 0.01 52 1035.1
20260503202200 67 199 7.8 13.0 0.00 0.01 0.01 51 1035.0
20260503201658 67 200 6.1 8.7 0.00 0.01 0.01 51 1035.5
20260503201155 68 213 3.5 11.3 0.00 0.01 0.01 52 1035.4
20260503200651 67 161 8.7 13.0 0.00 0.01 0.01 50 1035.3
20260503200148 67 253 5.2 8.7 0.00 0.01 0.01 51 1035.6
20260503195644 66 177 9.6 12.2 0.00 0.01 0.01 50 1035.2
20260503195142 66 172 10.4 14.8 0.00 0.01 0.01 49 1035.5
20260503194638 66 178 7.0 13.0 0.00 0.01 0.01 51 1035.4
20260503194134 67 171 9.6 11.3 0.00 0.01 0.01 51 1035.8
20260503193631 66 157 6.1 13.0 0.00 0.01 0.01 54 1035.7
20260503193126 67 190 7.8 11.3 0.00 0.01 0.01 52 1035.9
20260503192622 66 233 2.6 9.6 0.00 0.01 0.01 51 1036.1
20260503192118 67 200 10.4 13.9 0.00 0.01 0.01 49 1036.0
20260503191615 66 200 6.1 9.6 0.00 0.01 0.01 50 1036.1
20260503191112 66 192 8.7 11.3 0.00 0.01 0.01 51 1036.1
20260503190609 66 170 9.6 12.2 0.00 0.01 0.01 50 1036.2
20260503190106 66 199 9.6 15.6 0.00 0.01 0.01 50 1036.0
20260503185603 66 173 9.6 12.2 0.00 0.01 0.01 49 1036.1
20260503185102 65 182 10.4 12.2 0.00 0.01 0.01 51 1036.5
20260503184558 66 183 8.7 14.8 0.00 0.01 0.01 50 1036.4
20260503184055 66 183 8.7 12.2 0.00 0.01 0.01 53 1036.4
20260503183551 65 169 6.1 11.3 0.00 0.01 0.01 53 1036.4
20260503183049 65 152 9.6 14.8 0.00 0.01 0.01 50 1036.6
20260503182547 64 119 8.7 13.9 0.00 0.01 0.01 53 1036.2
20260503182045 64 186 9.6 13.9 0.00 0.01 0.01 53 1036.4
20260503181541 64 183 9.6 17.4 0.00 0.01 0.01 52 1036.8
20260503181038 63 147 5.2 12.2 0.00 0.01 0.01 59 1036.9
20260503180535 63 171 9.6 15.6 0.00 0.01 0.01 52 1036.7
20260503180032 64 174 11.3 13.9 0.00 0.01 0.01 53 1037.1
20260503175530 64 157 10.4 13.9 0.00 0.01 0.01 54 1036.9
20260503175027 64 148 7.8 13.9 0.00 0.01 0.01 57 1036.9
20260503174524 63 174 9.6 12.2 0.00 0.01 0.01 57 1037.0
20260503174020 62 121 7.8 14.8 0.00 0.01 0.01 59 1037.0
20260503173515 62 194 13.9 17.4 0.00 0.01 0.01 57 1037.4
20260503173012 62 193 7.8 13.0 0.00 0.01 0.01 60 1037.4
20260503172510 61 185 9.6 13.0 0.00 0.01 0.01 60 1037.2
20260503172006 61 182 7.8 17.4 0.00 0.01 0.01 62 1037.1
20260503171503 61 152 8.7 13.0 0.00 0.01 0.01 58 1037.4
20260503171000 61 192 7.0 13.0 0.00 0.01 0.01 61 1037.7
20260503170456 61 168 9.6 12.2 0.00 0.01 0.01 59 1037.8
20260503150849 0 175 6.1 9.6 0.00 0.01 0.01 1039.1
20260503150345 0 145 4.3 7.8 0.00 0.01 0.01 1039.0
20260503140309 0 142 6.1 9.6 0.00 0.01 0.01 1040.1
20260503131239 0 184 7.0 11.3 0.00 0.00 0.00 1041.0
20260503130736 0 169 9.6 11.3 0.00 0.00 0.00 1041.0
20260503130233 0 193 7.0 12.2 0.00 0.00 0.00 1041.2
20260503120200 0 173 5.2 8.7 0.00 0.00 0.00 1041.3
20260503110627 0 177 6.1 7.0 0.00 0.00 0.00 1041.1
20260503110124 0 192 5.2 6.1 0.00 0.00 0.00 1041.0
20260503081434 0 122 2.6 5.2 0.00 0.00 0.00 1042.2
20260503080932 0 156 2.6 4.3 0.00 0.00 0.00 1042.2
20260503080428 0 152 2.6 4.3 0.00 0.00 0.00 1042.2
20260503072904 0 99 1.7 2.6 0.00 0.00 0.00 1042.5
20260503072401 0 77 1.7 1.7 0.00 0.00 0.00 1042.4
20260503071858 0 85 1.7 2.6 0.00 0.00 0.00 1042.3
20260503071355 0 163 2.6 2.6 0.00 0.00 0.00 1042.5
20260503070851 0 112 2.6 2.6 0.00 0.00 0.00 1042.5
20260503070349 0 71 1.7 2.6 0.00 0.00 0.00 1042.5
20260503060314 0 138 1.7 2.6 0.00 0.00 0.00 1042.8
20260503054801 0 137 1.7 2.6 0.00 0.00 0.00 1043.1
20260503054258 0 152 2.6 2.6 0.00 0.00 0.00 1043.1
20260503053756 0 122 1.7 1.7 0.00 0.00 0.00 1043.0
20260503053254 0 142 1.7 2.6 0.00 0.00 0.00 1043.4
20260503052750 0 143 1.7 2.6 0.00 0.00 0.00 1043.2
20260503052247 0 147 2.6 2.6 0.00 0.00 0.00 1043.3
20260503051742 0 126 1.7 2.6 0.00 0.00 0.00 1043.3
20260503051240 0 135 2.6 2.6 0.00 0.00 0.00 1043.0
20260503050737 0 135 2.6 2.6 0.00 0.00 0.00 1043.4
20260503050233 0 125 1.7 2.6 0.00 0.00 0.00 1043.3
20260503045730 0 131 2.6 2.6 0.00 0.00 0.00 1043.5
20260503045228 0 147 1.7 2.6 0.00 0.00 0.00 1043.5
20260503044724 0 70 1.7 1.7 0.00 0.00 0.00 1043.4
20260503044222 0 56 1.7 1.7 0.00 0.00 0.00 1043.5
20260503043718 0 78 1.7 1.7 0.00 0.00 0.00 1043.7
20260503043216 0 41 0.9 1.7 0.00 0.00 0.00 1043.5
20260503042712 0 53 0.9 1.7 0.00 0.00 0.00 1043.8
20260503042208 0 21 0.9 0.9 0.00 0.00 0.00 1043.8
20260503041704 0 10 0.0 0.9 0.00 0.00 0.00 1043.8
20260503041202 0 10 0.0 0.0 0.00 0.00 0.00 1043.9
20260503040659 0 10 0.0 0.0 0.00 0.00 0.00 1043.8
20260503040157 0 10 0.0 0.9 0.00 0.00 0.00 1043.8
20260503035653 0 10 0.0 0.0 0.00 0.00 0.00 1044.1
20260503035151 0 10 0.0 0.0 0.00 0.00 0.00 1044.0
20260503034648 0 10 0.0 0.0 0.00 0.00 0.00 1044.0
20260503034145 0 10 0.0 0.0 0.00 0.00 0.00 1044.2
20260503033642 0 10 0.0 0.0 0.00 0.00 0.00 1044.2
20260503033140 0 10 0.0 0.0 0.00 0.00 0.00 1044.0
20260503032638 0 11 0.0 0.9 0.00 0.00 0.00 1044.0
20260503032137 0 9 0.0 0.0 0.00 0.00 0.00 1044.1
20260503031634 0 10 0.0 0.0 0.00 0.00 0.00 1044.3
20260503031131 0 10 0.0 0.0 0.00 0.00 0.00 1044.3
20260503030627 0 10 0.0 0.0 0.00 0.00 0.00 1044.2
20260503030124 0 14 0.0 1.7 0.00 0.00 0.00 1044.4
20260503025621 0 13 0.0 0.0 0.00 0.00 0.00 1044.1
20260503025119 0 14 0.0 0.9 0.00 0.00 0.00 1044.4
20260503024615 0 8 0.0 0.0 0.00 0.00 0.00 1044.4
20260503024112 0 8 0.0 0.0 0.00 0.00 0.00 1044.4
20260503023609 0 32 0.9 0.9 0.00 0.00 0.00 1044.3
20260503023106 0 28 0.9 0.9 0.00 0.00 0.00 1044.3
20260503022602 0 27 0.9 0.9 0.00 0.00 0.00 1044.3
20260503022056 0 26 0.9 0.9 0.00 0.00 0.00 1044.3
20260503021554 0 43 0.9 1.7 0.00 0.00 0.00 1044.3
20260503021051 0 40 0.9 1.7 0.00 0.00 0.00 1044.1
20260503020548 0 50 0.9 1.7 0.00 0.00 0.00 1044.4
20260503020044 0 57 1.7 1.7 0.00 0.00 0.00 1044.1
20260503015541 0 8 0.0 0.0 0.00 0.00 0.00 1044.1
20260503015039 0 12 0.0 0.9 0.00 0.00 0.00 1044.3
20260503014534 0 39 0.9 0.9 0.00 0.00 0.00 1044.0
20260503014033 0 39 0.9 1.7 0.00 0.00 0.00 1044.3
20260503013529 0 39 0.9 1.7 0.00 0.00 0.00 1044.1
20260503013027 0 37 0.9 1.7 0.00 0.00 0.00 1043.9
20260503012525 0 51 0.9 1.7 0.00 0.00 0.00 1044.0
20260503012021 0 39 0.9 1.7 0.00 0.00 0.00 1044.0
20260503011517 0 56 1.7 2.6 0.00 0.00 0.00 1043.9
20260503011015 0 55 0.9 1.7 0.00 0.00 0.00 1043.9
20260503010511 0 92 1.7 1.7 0.00 0.00 0.00 1043.8
20260503010009 0 33 0.9 1.7 0.00 0.00 0.00 1044.0
20260503005505 0 183 2.6 2.6 0.00 0.00 0.00 1043.8
20260503005002 0 191 1.7 2.6 0.00 0.00 0.00 1043.8
20260503004459 0 179 2.6 4.3 0.00 0.00 0.00 1044.0
20260503003957 0 280 0.9 2.6 0.00 0.00 0.00 1043.8
20260503003453 0 182 2.6 2.6 0.00 0.00 0.00 1044.2
20260503002950 0 322 0.9 2.6 0.00 0.00 0.00 1044.2
20260503002447 0 204 2.6 2.6 0.00 0.00 0.00 1044.1
20260503001943 0 195 3.5 6.1 0.00 0.00 0.00 1044.3
20260503001440 0 201 2.6 2.6 0.00 0.00 0.00 1044.2
20260503000938 0 285 1.7 2.6 0.00 0.00 0.00 1044.0